Weather History for Iowa Falls, IA

Change the Weather History Date:

Monday, November 26, 2012

  Actual Average Record
Temperature  
Mean Temperature 19 °F -  
Max Temperature 28 °F 38 °F 59 °F (1966)
Min Temperature 9 °F 23 °F -13 °F (1977)
Degree Days  
Heating Degree Days 46    
Moisture  
Dew Point 10 °F    
Average Humidity 61    
Maximum Humidity 80    
Minimum Humidity 43    
Precipitation  
Precipitation 0.00 in - - ()
Sea Level Pressure  
Sea Level Pressure 30.33 in    
Wind  
Wind Speed 9 mph (NW)    
Max Wind Speed 21 mph    
Max Gust Speed 24 mph    
Visibility 10 miles    
Events      
Averages and records for this station are not official NWS values.
T = Trace of Precipitation, MM = Missing Value Source: NWS Daily Summary

Daily Weather History Graph

Daily Weather History Graph

Search for Another Location

Airport:

Trip Planner

Search our weather history database for the weather conditions in past years. The results will help you decide how hot, cold, wet, or windy it might be!

Date:

Astronomy

Nov. 26, 2012 Rise Set
Actual Time 7:17 AM CST 4:42 PM CST
Civil Twilight 6:46 AM CST 5:14 PM CST
Nautical Twilight 6:12 AM CST 5:48 PM CST
Astronomical Twilight 5:38 AM CST 6:22 PM CST
Moon 3:36 PM CST (11/26) 5:27 AM CST (11/26)
Length of Visible Light 10h 27m
Length of Day
9h 24m
Waxing Gibbous, 97% of the Moon is Illuminated
Nov 26
Waxing Gibbous
Nov 28
Full
Dec 6
Last Quarter
Dec 13
New
Dec 19
First Quarter

Hourly Weather History & Observations

Time (CST) Temp. Windchill Dew Point Humidity Pressure Visibility Wind Dir Wind Speed Gust Speed Precip Events Conditions
12:15 AM 25.7 °F 21.5 °F 19.8 °F 78% 30.16 in 10.0 mi WNW 3.5 mph - N/A   Overcast
12:35 AM 25.7 °F - 19.9 °F 79% 30.17 in 10.0 mi Calm Calm - N/A   Overcast
12:55 AM 25.7 °F 21.5 °F 20.3 °F 80% 30.17 in 10.0 mi West 3.5 mph - N/A   Overcast
1:15 AM 26.6 °F 21.2 °F 20.3 °F 77% 30.17 in 10.0 mi West 4.6 mph - N/A   Overcast
1:35 AM 26.4 °F 20.9 °F 20.3 °F 78% 30.18 in 10.0 mi West 4.6 mph - N/A   Overcast
2:15 AM 28.2 °F 17.7 °F 20.5 °F 73% 30.19 in 10.0 mi NNW 12.7 mph 16.1 mph N/A   Overcast
2:35 AM 28.2 °F 18.3 °F 20.1 °F 72% 30.21 in 10.0 mi NNW 11.5 mph - N/A   Overcast
2:55 AM 28.0 °F 17.5 °F 19.0 °F 69% 30.21 in 10.0 mi NNW 12.7 mph - N/A   Overcast
3:15 AM 27.5 °F 18.6 °F 18.1 °F 68% 30.21 in 10.0 mi NNW 9.2 mph - N/A   Overcast
3:35 AM 27.3 °F 18.4 °F 17.6 °F 67% 30.21 in 10.0 mi North 9.2 mph - N/A   Overcast
3:55 AM 27.1 °F 17.5 °F 15.6 °F 62% 30.21 in 10.0 mi North 10.4 mph - N/A   Overcast
4:15 AM 26.6 °F 18.2 °F 13.8 °F 59% 30.22 in 10.0 mi North 8.1 mph - N/A   Overcast
4:35 AM 25.3 °F 16.7 °F 13.6 °F 61% 30.22 in 10.0 mi North 8.1 mph - N/A   Mostly Cloudy
4:55 AM 25.7 °F 17.1 °F 14.0 °F 61% 30.22 in 10.0 mi North 8.1 mph - N/A   Mostly Cloudy
5:15 AM 25.7 °F 17.1 °F 13.6 °F 60% 30.23 in 10.0 mi North 8.1 mph - N/A   Overcast
5:35 AM 25.7 °F 19.0 °F 13.6 °F 60% 30.22 in 10.0 mi North 5.8 mph - N/A   Overcast
5:55 AM 25.7 °F 16.4 °F 13.3 °F 59% 30.23 in 10.0 mi North 9.2 mph - N/A   Overcast
6:15 AM 25.5 °F 15.5 °F 13.1 °F 59% 30.24 in 10.0 mi North 10.4 mph - N/A   Overcast
6:35 AM 25.2 °F 15.1 °F 13.1 °F 60% 30.24 in 10.0 mi NNW 10.4 mph 17.3 mph N/A   Overcast
7:15 AM 24.6 °F 13.8 °F 12.2 °F 59% 30.27 in 10.0 mi North 11.5 mph - N/A   Overcast
7:35 AM 24.3 °F 12.7 °F 12.4 °F 61% 30.28 in 10.0 mi North 12.7 mph - N/A   Mostly Cloudy
7:55 AM 24.1 °F 12.5 °F 12.2 °F 61% 30.28 in 10.0 mi North 12.7 mph 20.7 mph N/A   Scattered Clouds
8:15 AM 23.9 °F 11.7 °F 12.4 °F 62% 30.31 in 10.0 mi NNW 13.8 mph - N/A   Clear
8:35 AM 24.3 °F 12.2 °F 12.6 °F 61% 30.31 in 10.0 mi NNW 13.8 mph 18.4 mph N/A   Scattered Clouds
8:55 AM 23.4 °F 10.1 °F 11.3 °F 60% 30.33 in 10.0 mi NNW 16.1 mph 20.7 mph N/A   Scattered Clouds
9:15 AM 23.2 °F 11.4 °F 11.1 °F 60% 30.33 in 10.0 mi North 12.7 mph 19.6 mph N/A   Mostly Cloudy
9:35 AM 23.0 °F 9.2 °F 10.6 °F 59% 30.35 in 10.0 mi NNW 17.3 mph - N/A   Mostly Cloudy
9:55 AM 23.0 °F 8.7 °F 10.8 °F 60% 30.35 in 10.0 mi NNW 18.4 mph 24.2 mph N/A   Scattered Clouds
10:15 AM 23.7 °F 10.1 °F 11.5 °F 60% 30.36 in 10.0 mi NNW 17.3 mph 21.9 mph N/A   Mostly Cloudy
10:35 AM 25.0 °F 10.6 °F 10.2 °F 54% 30.36 in 10.0 mi NW 20.7 mph - N/A   Scattered Clouds
10:55 AM 25.2 °F 12.4 °F 9.3 °F 51% 30.37 in 10.0 mi NW 16.1 mph - N/A   Clear
11:15 AM 23.9 °F 10.8 °F 9.3 °F 54% 30.37 in 10.0 mi NNW 16.1 mph 20.7 mph N/A   Clear
11:35 AM 23.0 °F 10.1 °F 8.1 °F 53% 30.38 in 10.0 mi NNW 15.0 mph - N/A   Clear
11:55 AM 23.7 °F 11.5 °F 7.7 °F 51% 30.37 in 10.0 mi NNW 13.8 mph 19.6 mph N/A   Clear
12:15 PM 23.9 °F 11.2 °F 6.8 °F 48% 30.37 in 10.0 mi NW 15.0 mph - N/A   Clear
12:35 PM 23.0 °F 9.6 °F 6.1 °F 48% 30.38 in 10.0 mi NW 16.1 mph - N/A   Clear
1:15 PM 23.5 °F 9.9 °F 5.9 °F 47% 30.38 in 10.0 mi NW 17.3 mph 20.7 mph N/A   Clear
1:35 PM 24.3 °F 12.2 °F 6.1 °F 46% 30.37 in 10.0 mi NW 13.8 mph 19.6 mph N/A   Clear
1:55 PM 24.4 °F 12.4 °F 6.3 °F 46% 30.37 in 10.0 mi NW 13.8 mph - N/A   Clear
2:15 PM 26.1 °F 13.1 °F 6.6 °F 44% 30.37 in 10.0 mi NW 17.3 mph - N/A   Clear
2:35 PM 24.8 °F 12.4 °F 5.0 °F 43% 30.37 in 10.0 mi NW 15.0 mph - N/A   Clear
3:15 PM 23.9 °F 11.7 °F 5.2 °F 45% 30.37 in 10.0 mi NNW 13.8 mph - N/A   Clear
3:35 PM 23.9 °F 11.2 °F 5.0 °F 44% 30.37 in 10.0 mi NW 15.0 mph - N/A   Clear
3:55 PM 24.3 °F 12.2 °F 5.5 °F 45% 30.38 in 10.0 mi NW 13.8 mph 17.3 mph N/A   Clear
4:15 PM 24.4 °F 13.5 °F 5.9 °F 45% 30.38 in 10.0 mi NW 11.5 mph - N/A   Clear
4:35 PM 23.4 °F 11.6 °F 6.1 °F 48% 30.38 in 10.0 mi NNW 12.7 mph - N/A   Clear
4:55 PM 21.7 °F 10.2 °F 5.9 °F 51% 30.38 in 10.0 mi NNW 11.5 mph - N/A   Clear
5:15 PM 20.7 °F 9.5 °F 5.5 °F 52% 30.38 in 10.0 mi NNW 10.4 mph - N/A   Clear
5:35 PM 19.4 °F 8.6 °F 5.4 °F 55% 30.39 in 10.0 mi NW 9.2 mph - N/A   Clear
5:55 PM 17.6 °F 8.2 °F 5.0 °F 58% 30.40 in 10.0 mi NW 6.9 mph - N/A   Clear
6:15 PM 16.0 °F 6.3 °F 4.5 °F 60% 30.40 in 10.0 mi NW 6.9 mph - N/A   Clear
6:35 PM 15.4 °F 4.6 °F 4.6 °F 62% 30.40 in 10.0 mi NW 8.1 mph - N/A   Clear
7:15 PM 13.8 °F 3.7 °F 5.0 °F 68% 30.42 in 10.0 mi WNW 6.9 mph - N/A   Clear
7:35 PM 14.0 °F - 4.8 °F 67% 30.42 in 10.0 mi Calm Calm - N/A   Clear
7:55 PM 14.0 °F - 4.6 °F 66% 30.43 in 10.0 mi Calm Calm - N/A   Clear
8:15 PM 12.9 °F - 4.1 °F 68% 30.42 in 10.0 mi Calm Calm - N/A   Clear
8:35 PM 12.0 °F - 3.9 °F 70% 30.43 in 10.0 mi Calm Calm - N/A   Clear
8:55 PM 11.3 °F 5.1 °F 4.1 °F 73% 30.42 in 10.0 mi NW 3.5 mph - N/A   Clear
9:15 PM 11.7 °F 3.7 °F 4.5 °F 73% 30.43 in 10.0 mi West 4.6 mph - N/A   Clear
9:35 PM 12.6 °F 4.8 °F 5.4 °F 73% 30.43 in 10.0 mi WSW 4.6 mph - N/A   Clear
9:55 PM 10.8 °F 2.7 °F 4.1 °F 75% 30.43 in 10.0 mi WSW 4.6 mph - N/A   Clear
10:15 PM 11.3 °F 5.1 °F 4.5 °F 74% 30.42 in 10.0 mi West 3.5 mph - N/A   Clear
10:35 PM 11.3 °F 5.1 °F 4.5 °F 74% 30.41 in 10.0 mi WSW 3.5 mph - N/A   Clear
11:15 PM 10.4 °F 4.0 °F 3.9 °F 75% 30.41 in 10.0 mi West 3.5 mph - N/A   Clear
11:35 PM 9.9 °F - 3.9 °F 77% 30.41 in 10.0 mi Calm Calm - N/A   Clear